Location: Neuvy Saint Sepulchre
(46.5953°N, 1.8122°E)
Time: 12:04:10
(UTC+02:00)

ISS - Pass Details

Date: 20 April 2026
Orbit: 415 x 424 km, 51.6° (Epoch: 14 April)

Event Time Altitude Azimuth Distance (km) Brightness Sun altitude
Exits shadow 05:26:38 14° 177° (S) 1,270 -1.6 -14.7°
Maximum altitude 05:28:24 20° 138° (SE) 1,024 -1.7 -14.4°
Drops below altitude 10° 05:30:57 10° 88° (E) 1,502 0.0 -14.1°
Sets 05:33:24 0° 71° (ENE) 2,372 1.7 -13.7°
